Location: Cazavet
(43.0017°N, 1.0431°E)
Time: 09:20:53
(UTC+00:00)

Cosmos 1484 Rocket - Pass Details

Date: 18 January 2026
Orbit: 439 x 467 km, 97.6° (Epoch: 10 February)

Event Time Altitude Azimuth Distance (km) Brightness Sun altitude
Rises 06:39:24 0° 358° (N) 2,458 5.9 -8.1°
Reaches altitude 10° 06:41:44 10° 342° (NNW) 1,587 4.8 -7.7°
Maximum altitude 06:44:22 21° 291° (WNW) 1,060 3.7 -7.2°
Drops below altitude 10° 06:47:01 10° 240° (WSW) 1,590 4.8 -6.8°
Sets 06:49:22 0° 224° (SW) 2,465 5.9 -6.4°
